CZ-3C DEB, 40835

Orbit data source: Space-Track

CZ-3C DEB, 40835 is space debris in HEO originally from a launch on Sun, 31 Oct 2010 UTC launched from the Xichang Space Center, China (XSC). Debris objects in space refer to the collection of defunct objects orbiting the Earth. Examples of debris include non-operational satellites, rocket bodies, and fragments generated from explosions, collisions, or faulty payload assembly.

Loading next visibility...
Identifier
40835, 2010-057BC
Orbit
HEO
Country
Flag of CNCN / PRC
Related business
Manufacturer
CALT
Mission
Spacecraft
Bus & Motor
Unknown
Mass
Unknown
Launch date (UTC)
2010-10-31 (16 years ago)
Launch vehicle
Unknown
Launch site
Xichang Space Center, China (XSC)
Object type
Payload
Rocket body
Debris
Shape & HBR
Unknown shape, 0.2 m
Radar Cross Section
Medium (>0.1 m² and <1 m²)

Expand to show TLE details & history
Last TLE update: 5 days ago

TLE from 5 days ago
0 CZ-3C DEB
1 40835U 10057BC  26167.46166599 -.00000024  00000-0  28216-3 0  9990
2 40835  19.7507 113.8799 7213047 138.6158 307.6756  2.20289787 12344
Epoch: 2026-06-16T11:04Z
TLE epoch observation values (Epoch: 2026-06-16T11:04:47.941Z)
Latitude
0.00005°
Longitude
42.84307°
Altitude
19,728.273 km
Speed
3.816 km/s
True Right ascension
07h 35m 06s
True Declination
0° 00' 00"
Sunlit
Object was in daylight at epoch
Visualization orbit readout
Latitude
Unknown
Longitude
Unknown
Altitude
Unknown
Speed
Unknown
Apparent Right ascension
Unknown
Apparent Declination
Unknown
Sunlit
N/A
Visualization observer readout
Local Sidereal Time
01:39:39
Azimuth
Unknown
Elevation
Unknown
Doppler factor
Unknown
Orbital elements
Apogee altitude
36,576.191 km
Perigee altitude
576.57 km
Semi-major axis
24,954.517 km
Eccentricity
0.7213
Inclination
19.7507°
RAAN
113.8799°
Arg. of periapsis
138.6158°
True anomaly
221.41777°
Mean anomaly
307.6756°
Eccentric anomaly
266.42817°
Mean motion
0.55058 °/min
Orbital period
653.86 mins
BSTAR
0.00028216
Loading maneuver chart data...
Computing Atmospheric mass density...
Loading historical data...
Loading historical data...
Loading historical data...
Loading historical data...
Loading historical data...
Loading historical data...
Loading historical data...

Documentation

Showing up to 5 results
|